Total_Precipitation_Accumulation
1.81 2.02 2.00 1.88 1.96 2.06 2.26 2.42 2.51 2.31 2.17 2.02 1.71 1.56 1.60 1.65 1.82 1.68 1.66 1.50 1.21 1.09 1.05 1.03 1.01 1.07 1.21 1.41 1.59 1.74 1.96 2.15 2.31 2.46 2.58 2.76 2.94 3.08
1.95 2.13 2.09 2.00 2.03 2.07 2.22 2.45 2.69 2.69 2.33 1.91 1.75 1.70 1.79 1.72 1.90 1.65 1.59 1.63 1.38 1.17 1.06 1.07 1.05 1.06 1.10 1.25 1.42 1.56 1.69 1.81 1.97 2.11 2.20 2.28 2.36 2.52
1.84 1.99 2.06 2.16 2.18 2.16 2.28 2.39 2.65 2.90 2.62 2.12 2.00 2.01 2.12 2.09 1.98 1.73 1.54 1.46 1.31 1.26 1.11 1.05 1.04 1.05 1.10 1.17 1.31 1.44 1.53 1.62 1.78 1.92 2.06 2.17 2.20 2.23
1.89 2.01 1.94 2.09 2.24 2.20 2.32 2.34 2.44 2.74 2.66 2.40 2.34 2.29 2.27 2.18 2.16 1.96 1.66 1.51 1.44 1.39 1.18 1.07 1.05 1.03 1.07 1.10 1.20 1.36 1.48 1.55 1.60 1.63 1.69 1.83 2.01 2.17
1.91 1.91 1.88 2.06 2.08 2.18 2.30 2.27 2.25 2.40 2.58 2.52 2.48 2.54 2.51 2.39 2.29 2.12 1.93 1.86 1.58 1.51 1.41 1.30 1.26 1.23 1.22 1.20 1.20 1.27 1.38 1.51 1.62 1.70 1.75 1.82 1.88 1.96
1.92 1.88 1.86 1.90 1.94 2.01 2.12 2.22 2.29 2.40 2.52 2.55 2.59 2.73 2.70 2.73 2.68 2.45 2.33 2.24 1.94 1.60 1.59 1.47 1.40 1.30 1.22 1.15 1.13 1.18 1.28 1.46 1.63 1.72 1.77 1.83 1.87 1.86
1.98 1.89 1.78 1.79 1.85 1.88 1.85 1.96 2.09 2.23 2.25 2.34 2.41 2.63 2.70 2.81 2.80 2.64 2.51 2.49 2.30 1.88 1.72 1.59 1.51 1.39 1.35 1.31 1.22 1.17 1.21 1.33 1.51 1.64 1.69 1.73 1.79 1.81
2.03 1.96 1.82 1.72 1.70 1.66 1.56 1.57 1.65 1.75 1.93 2.14 2.22 2.43 2.62 2.78 2.98 3.04 2.88 2.69 2.54 2.24 2.11 1.97 1.71 1.62 1.45 1.31 1.28 1.11 1.01 1.06 1.15 1.28 1.39 1.52 1.63 1.77
1.91 1.90 1.68 1.53 1.62 1.55 1.57 1.53 1.52 1.61 1.71 1.93 2.12 2.22 2.44 2.64 2.88 3.02 3.01 2.89 2.70 2.53 2.39 2.24 1.91 1.70 1.50 1.37 1.29 1.05 0.90 0.84 0.85 0.92 1.00 1.14 1.27 1.40
1.74 1.78 1.75 1.68 1.68 1.71 1.63 1.51 1.43 1.50 1.59 1.57 1.61 1.77 2.03 2.38 2.56 2.60 2.74 2.76 2.61 2.45 2.38 2.34 2.08 1.87 1.65 1.51 1.41 1.13 0.96 0.87 0.82 0.80 0.82 0.88 1.00 1.12
1.59 1.61 1.63 1.59 1.66 1.54 1.44 1.42 1.42 1.45 1.44 1.42 1.38 1.42 1.56 1.78 2.11 2.25 2.34 2.31 2.20 1.96 1.85 1.92 1.90 1.86 1.78 1.65 1.46 1.29 1.08 0.95 0.89 0.87 0.86 0.87 0.93 1.02
1.59 1.56 1.50 1.38 1.35 1.30 1.28 1.40 1.38 1.37 1.41 1.35 1.26 1.20 1.16 1.31 1.62 1.79 1.87 1.91 1.81 1.76 1.50 1.48 1.53 1.58 1.69 1.56 1.40 1.32 1.24 1.21 1.12 0.99 0.93 0.92 1.02 0.99
1.55 1.54 1.44 1.37 1.20 1.17 1.16 1.19 1.22 1.20 1.27 1.29 1.26 1.24 1.25 1.25 1.30 1.44 1.63 1.75 1.71 1.52 1.39 1.41 1.43 1.45 1.46 1.43 1.36 1.29 1.29 1.34 1.30 1.26 1.20 1.18 1.22 1.19
1.53 1.49 1.48 1.36 1.15 1.09 1.02 1.01 1.03 0.96 0.99 1.10 1.08 1.04 1.05 1.06 1.09 1.23 1.43 1.57 1.65 1.50 1.39 1.44 1.46 1.40 1.36 1.26 1.18 1.10 1.09 1.22 1.38 1.50 1.46 1.47 1.45 1.51
1.39 1.43 1.37 1.23 1.03 0.89 0.88 0.86 0.80 0.77 0.86 0.96 0.97 0.90 0.87 0.92 1.02 1.17 1.31 1.45 1.49 1.42 1.29 1.32 1.36 1.35 1.32 1.21 1.06 0.98 0.99 1.04 1.12 1.32 1.52 1.63 1.62 1.63
1.36 1.32 1.19 1.12 0.98 0.88 0.88 0.81 0.74 0.80 0.89 0.92 0.95 0.96 0.93 0.95 0.98 1.04 1.15 1.26 1.33 1.26 1.18 1.17 1.26 1.35 1.28 1.13 1.09 0.99 0.95 0.97 0.94 1.04 1.32 1.62 1.84 1.94
1.53 1.45 1.33 1.22 1.08 0.98 0.97 0.98 0.99 1.05 1.03 1.01 1.06 1.11 1.08 1.01 0.98 1.01 1.14 1.19 1.15 1.09 1.08 1.12 1.17 1.31 1.31 1.18 1.10 1.01 1.00 0.95 0.89 0.95 1.12 1.30 1.53 1.78
1.41 1.34 1.30 1.22 1.14 1.13 1.16 1.17 1.16 1.17 1.13 1.14 1.16 1.18 1.18 1.09 1.00 1.00 1.10 1.16 1.11 1.05 1.03 1.05 1.19 1.37 1.40 1.26 0.96 0.87 0.89 0.91 0.92 1.06 1.16 1.14 1.20 1.31
1.33 1.33 1.30 1.28 1.22 1.19 1.22 1.22 1.17 1.16 1.20 1.21 1.21 1.22 1.26 1.25 1.21 1.15 1.13 1.18 1.16 1.12 1.08 1.09 1.18 1.26 1.21 1.06 0.92 0.73 0.77 0.85 0.97 1.08 1.17 1.12 1.06 1.11
1.24 1.29 1.28 1.26 1.24 1.21 1.19 1.20 1.20 1.22 1.21 1.19 1.22 1.25 1.31 1.32 1.33 1.25 1.18 1.15 1.18 1.21 1.20 1.15 1.09 1.06 1.06 1.01 0.96 0.90 0.79 0.90 1.01 1.06 1.10 1.14 1.10 1.07
1.20 1.19 1.16 1.11 1.09 1.10 1.09 1.08 1.08 1.10 1.12 1.18 1.18 1.18 1.23 1.22 1.18 1.16 1.17 1.18 1.19 1.26 1.17 1.00 0.96 1.04 1.22 1.39 1.23 0.99 0.94 0.94 1.05 1.12 1.18 1.26 1.26 1.25
1.12 1.08 1.08 1.05 1.05 1.05 1.06 1.05 1.04 1.06 1.10 1.19 1.19 1.18 1.20 1.19 1.13 1.13 1.19 1.21 1.18 1.18 1.20 1.18 1.27 1.35 1.41 1.39 1.21 1.06 1.09 1.16 1.17 1.18 1.18 1.14 1.15 1.11
1.04 1.01 1.00 0.95 0.95 0.95 0.97 0.99 1.03 1.08 1.10 1.15 1.19 1.21 1.24 1.22 1.17 1.18 1.22 1.27 1.27 1.29 1.42 1.46 1.41 1.38 1.32 1.32 1.29 1.22 1.23 1.36 1.44 1.44 1.34 1.15 0.89 0.74